TimeMST,TemperatureF,Dew PointF,Humidity,Sea Level PressureIn,VisibilityMPH,Wind Direction,Wind SpeedMPH,Gust SpeedMPH,PrecipitationIn,Events,Conditions,WindDirDegrees,DateUTC
12:52 AM,34.0,23.0,64,30.10,10.0,SE,5.8,-,N/A,,Clear,140,2012-11-07 07:52:00
1:52 AM,34.0,24.1,67,30.07,10.0,ESE,3.5,-,N/A,,Clear,120,2012-11-07 08:52:00
2:52 AM,32.0,24.1,73,30.05,10.0,ESE,4.6,-,N/A,,Clear,110,2012-11-07 09:52:00
3:52 AM,32.0,24.8,75,29.98,10.0,ESE,4.6,-,N/A,,Clear,110,2012-11-07 10:52:00
4:52 AM,30.9,23.0,72,30.02,10.0,ESE,4.6,-,N/A,,Clear,120,2012-11-07 11:52:00
5:52 AM,30.9,24.1,76,30.02,10.0,ESE,5.8,-,N/A,,Clear,120,2012-11-07 12:52:00
6:52 AM,30.0,24.1,79,30.01,10.0,ESE,4.6,-,N/A,,Clear,110,2012-11-07 13:52:00
7:52 AM,34.0,27.0,75,29.98,10.0,ESE,3.5,-,N/A,,Clear,110,2012-11-07 14:52:00
8:52 AM,42.1,28.9,60,29.95,10.0,SE,5.8,-,N/A,,Clear,140,2012-11-07 15:52:00
9:37 AM,48.2,30.2,50,29.86,10.0,SE,9.2,-,N/A,,Clear,140,2012-11-07 16:37:00
9:52 AM,51.1,30.9,46,29.88,10.0,SE,8.1,-,N/A,,Clear,130,2012-11-07 16:52:00
10:52 AM,64.9,35.1,33,29.82,10.0,SE,8.1,-,N/A,,Clear,130,2012-11-07 17:52:00
11:52 AM,70.0,30.9,24,29.77,10.0,South,10.4,-,N/A,,Clear,190,2012-11-07 18:52:00
12:52 PM,72.0,30.0,21,29.74,10.0,South,5.8,-,N/A,,Clear,170,2012-11-07 19:52:00
1:52 PM,73.9,28.0,18,29.73,10.0,NE,3.5,-,N/A,,Clear,50,2012-11-07 20:52:00
2:52 PM,73.9,28.9,19,29.73,10.0,NNE,4.6,-,N/A,,Clear,20,2012-11-07 21:52:00
3:52 PM,68.0,30.9,25,29.74,10.0,NNE,8.1,-,N/A,,Clear,30,2012-11-07 22:52:00
4:52 PM,54.0,30.9,41,29.76,10.0,NNE,8.1,-,N/A,,Clear,20,2012-11-07 23:52:00
5:52 PM,52.0,30.9,45,29.78,10.0,NNE,6.9,-,N/A,,Clear,30,2012-11-08 00:52:00
6:52 PM,48.9,30.0,48,29.79,10.0,NW,3.5,-,N/A,,Clear,310,2012-11-08 01:52:00
7:52 PM,48.9,30.0,48,29.77,10.0,West,4.6,-,N/A,,Clear,270,2012-11-08 02:52:00
8:52 PM,44.1,28.9,55,29.78,10.0,West,5.8,-,N/A,,Clear,280,2012-11-08 03:52:00
9:52 PM,43.0,30.0,60,29.75,10.0,NW,3.5,-,N/A,,Clear,310,2012-11-08 04:52:00
10:52 PM,45.0,28.9,53,29.71,10.0,NW,9.2,-,N/A,,Clear,320,2012-11-08 05:52:00
11:52 PM,48.9,28.9,46,29.73,10.0,NNW,27.6,38.0,N/A,,Clear,330,2012-11-08 06:52:00